owner,sensor,date,latitude,longitude,relative_humidity,qcFlag 
DISL,ioos:station:DISL:MBLA:1,2016-04-01T00:00:00Z,30.4367,-88.0117,97.5,1111122 
DISL,ioos:station:DISL:MBLA:1,2016-04-01T00:30:00Z,30.4367,-88.0117,97.7,1111122 
DISL,ioos:station:DISL:MBLA:1,2016-04-01T01:00:00Z,30.4367,-88.0117,97.9,1111122 
DISL,ioos:station:DISL:MBLA:1,2016-04-01T01:30:00Z,30.4367,-88.0117,98.0,1111122 
DISL,ioos:station:DISL:MBLA:1,2016-04-01T02:00:00Z,30.4367,-88.0117,98.0,1111122 
DISL,ioos:station:DISL:MBLA:1,2016-04-01T02:30:00Z,30.4367,-88.0117,98.2,1111122 
DISL,ioos:station:DISL:MBLA:1,2016-04-01T03:00:00Z,30.4367,-88.0117,98.2,1111122 
DISL,ioos:station:DISL:MBLA:1,2016-04-01T03:30:00Z,30.4367,-88.0117,98.4,1111122 
DISL,ioos:station:DISL:MBLA:1,2016-04-01T04:00:00Z,30.4367,-88.0117,98.1,1111122 
DISL,ioos:station:DISL:MBLA:1,2016-04-01T04:30:00Z,30.4367,-88.0117,97.6,1111122 
DISL,ioos:station:DISL:MBLA:1,2016-04-01T05:00:00Z,30.4367,-88.0117,97.6,1111122 
DISL,ioos:station:DISL:MBLA:1,2016-04-01T05:30:00Z,30.4367,-88.0117,97.7,1111122 
DISL,ioos:station:DISL:MBLA:1,2016-04-01T06:00:00Z,30.4367,-88.0117,97.9,1111122 
DISL,ioos:station:DISL:MBLA:1,2016-04-01T06:30:00Z,30.4367,-88.0117,98.0,1111122 
DISL,ioos:station:DISL:MBLA:1,2016-04-01T07:00:00Z,30.4367,-88.0117,98.2,1111122 
DISL,ioos:station:DISL:MBLA:1,2016-04-01T07:30:00Z,30.4367,-88.0117,98.6,1111122 
DISL,ioos:station:DISL:MBLA:1,2016-04-01T08:00:00Z,30.4367,-88.0117,98.8,1111122 
DISL,ioos:station:DISL:MBLA:1,2016-04-01T08:30:00Z,30.4367,-88.0117,98.7,1111122 
DISL,ioos:station:DISL:MBLA:1,2016-04-01T09:00:00Z,30.4367,-88.0117,99.0,1111122 
DISL,ioos:station:DISL:MBLA:1,2016-04-01T09:30:00Z,30.4367,-88.0117,99.0,1111122 
DISL,ioos:station:DISL:MBLA:1,2016-04-01T10:00:00Z,30.4367,-88.0117,99.2,1111122 
DISL,ioos:station:DISL:MBLA:1,2016-04-01T10:30:00Z,30.4367,-88.0117,99.3,1111122 
DISL,ioos:station:DISL:MBLA:1,2016-04-01T11:00:00Z,30.4367,-88.0117,99.3,1111122 
DISL,ioos:station:DISL:MBLA:1,2016-04-01T11:30:00Z,30.4367,-88.0117,99.5,1111122 
DISL,ioos:station:DISL:MBLA:1,2016-04-01T12:00:00Z,30.4367,-88.0117,99.7,1111122 
DISL,ioos:station:DISL:MBLA:1,2016-04-01T12:30:00Z,30.4367,-88.0117,99.6,1111122 
DISL,ioos:station:DISL:MBLA:1,2016-04-01T13:00:00Z,30.4367,-88.0117,99.7,1111122 
DISL,ioos:station:DISL:MBLA:1,2016-04-01T13:30:00Z,30.4367,-88.0117,99.9,1111122 
DISL,ioos:station:DISL:MBLA:1,2016-04-01T14:00:00Z,30.4367,-88.0117,99.8,1111122 
DISL,ioos:station:DISL:MBLA:1,2016-04-01T14:30:00Z,30.4367,-88.0117,99.8,1111122 
DISL,ioos:station:DISL:MBLA:1,2016-04-01T15:00:00Z,30.4367,-88.0117,99.0,1111122 
DISL,ioos:station:DISL:MBLA:1,2016-04-01T15:30:00Z,30.4367,-88.0117,99.5,1111122 
DISL,ioos:station:DISL:MBLA:1,2016-04-01T16:00:00Z,30.4367,-88.0117,99.8,1111122 
DISL,ioos:station:DISL:MBLA:1,2016-04-01T16:30:00Z,30.4367,-88.0117,99.9,1111122 
DISL,ioos:station:DISL:MBLA:1,2016-04-01T17:00:00Z,30.4367,-88.0117,100.0,1111122 
DISL,ioos:station:DISL:MBLA:1,2016-04-01T17:30:00Z,30.4367,-88.0117,99.9,1111122 
DISL,ioos:station:DISL:MBLA:1,2016-04-01T18:00:00Z,30.4367,-88.0117,100.0,1111122 
DISL,ioos:station:DISL:MBLA:1,2016-04-01T18:30:00Z,30.4367,-88.0117,100.0,1111122 
DISL,ioos:station:DISL:MBLA:1,2016-04-01T19:00:00Z,30.4367,-88.0117,100.0,1111122 
DISL,ioos:station:DISL:MBLA:1,2016-04-01T19:30:00Z,30.4367,-88.0117,100.0,1111122 
DISL,ioos:station:DISL:MBLA:1,2016-04-01T20:00:00Z,30.4367,-88.0117,100.0,1111122 
DISL,ioos:station:DISL:MBLA:1,2016-04-01T20:30:00Z,30.4367,-88.0117,100.0,1111122 
DISL,ioos:station:DISL:MBLA:1,2016-04-01T21:00:00Z,30.4367,-88.0117,100.0,1111122 
DISL,ioos:station:DISL:MBLA:1,2016-04-01T21:30:00Z,30.4367,-88.0117,100.0,1111122 
DISL,ioos:station:DISL:MBLA:1,2016-04-01T22:00:00Z,30.4367,-88.0117,100.0,1111122 
DISL,ioos:station:DISL:MBLA:1,2016-04-01T22:30:00Z,30.4367,-88.0117,100.0,1111122 
DISL,ioos:station:DISL:MBLA:1,2016-04-01T23:00:00Z,30.4367,-88.0117,100.0,1111122 
DISL,ioos:station:DISL:MBLA:1,2016-04-01T23:30:00Z,30.4367,-88.0117,100.0,1111122 
DISL,ioos:station:DISL:MBLA:1,2016-04-02T00:00:00Z,30.4367,-88.0117,99.4,1111122 
DISL,ioos:station:DISL:MBLA:1,2016-04-02T00:30:00Z,30.4367,-88.0117,99.8,1111122 
DISL,ioos:station:DISL:MBLA:1,2016-04-02T01:00:00Z,30.4367,-88.0117,99.7,1111122 
DISL,ioos:station:DISL:MBLA:1,2016-04-02T01:30:00Z,30.4367,-88.0117,99.3,1111122 
DISL,ioos:station:DISL:MBLA:1,2016-04-02T02:00:00Z,30.4367,-88.0117,98.0,1111122 
DISL,ioos:station:DISL:MBLA:1,2016-04-02T02:30:00Z,30.4367,-88.0117,98.2,1111122 
DISL,ioos:station:DISL:MBLA:1,2016-04-02T03:00:00Z,30.4367,-88.0117,97.2,1111122 
DISL,ioos:station:DISL:MBLA:1,2016-04-02T03:30:00Z,30.4367,-88.0117,95.4,1111122 
DISL,ioos:station:DISL:MBLA:1,2016-04-02T04:00:00Z,30.4367,-88.0117,94.9,1111122 
DISL,ioos:station:DISL:MBLA:1,2016-04-02T04:30:00Z,30.4367,-88.0117,92.2,1111122 
DISL,ioos:station:DISL:MBLA:1,2016-04-02T05:00:00Z,30.4367,-88.0117,88.2,1111122 
DISL,ioos:station:DISL:MBLA:1,2016-04-02T05:30:00Z,30.4367,-88.0117,86.2,1111122 
DISL,ioos:station:DISL:MBLA:1,2016-04-02T06:00:00Z,30.4367,-88.0117,88.2,1111122 
DISL,ioos:station:DISL:MBLA:1,2016-04-02T06:30:00Z,30.4367,-88.0117,83.7,1111122 
DISL,ioos:station:DISL:MBLA:1,2016-04-02T07:00:00Z,30.4367,-88.0117,81.1,1111122 
DISL,ioos:station:DISL:MBLA:1,2016-04-02T07:30:00Z,30.4367,-88.0117,82.9,1111122 
DISL,ioos:station:DISL:MBLA:1,2016-04-02T08:00:00Z,30.4367,-88.0117,76.07,1111122 
DISL,ioos:station:DISL:MBLA:1,2016-04-02T08:30:00Z,30.4367,-88.0117,68.48,1111122 
DISL,ioos:station:DISL:MBLA:1,2016-04-02T09:00:00Z,30.4367,-88.0117,75.56,1111122 
DISL,ioos:station:DISL:MBLA:1,2016-04-02T09:30:00Z,30.4367,-88.0117,71.5,1111122 
DISL,ioos:station:DISL:MBLA:1,2016-04-02T10:00:00Z,30.4367,-88.0117,70.69,1111122 
DISL,ioos:station:DISL:MBLA:1,2016-04-02T10:30:00Z,30.4367,-88.0117,70.7,1111122 
DISL,ioos:station:DISL:MBLA:1,2016-04-02T11:00:00Z,30.4367,-88.0117,71.21,1111122 
DISL,ioos:station:DISL:MBLA:1,2016-04-02T11:30:00Z,30.4367,-88.0117,68.67,1111122 
DISL,ioos:station:DISL:MBLA:1,2016-04-02T12:00:00Z,30.4367,-88.0117,73.21,1111122 
DISL,ioos:station:DISL:MBLA:1,2016-04-02T12:30:00Z,30.4367,-88.0117,67.96,1111122 
DISL,ioos:station:DISL:MBLA:1,2016-04-02T13:00:00Z,30.4367,-88.0117,66.19,1111122 
DISL,ioos:station:DISL:MBLA:1,2016-04-02T13:30:00Z,30.4367,-88.0117,71.45,1111122 
DISL,ioos:station:DISL:MBLA:1,2016-04-02T14:00:00Z,30.4367,-88.0117,63.27,1111122 
DISL,ioos:station:DISL:MBLA:1,2016-04-02T14:30:00Z,30.4367,-88.0117,62.65,1111122 
DISL,ioos:station:DISL:MBLA:1,2016-04-02T15:00:00Z,30.4367,-88.0117,62.2,1111122 
DISL,ioos:station:DISL:MBLA:1,2016-04-02T15:30:00Z,30.4367,-88.0117,52.16,1111122 
DISL,ioos:station:DISL:MBLA:1,2016-04-02T16:00:00Z,30.4367,-88.0117,49.28,1111122 
DISL,ioos:station:DISL:MBLA:1,2016-04-02T16:30:00Z,30.4367,-88.0117,48.91,1111122 
DISL,ioos:station:DISL:MBLA:1,2016-04-02T17:00:00Z,30.4367,-88.0117,43.82,1111122 
DISL,ioos:station:DISL:MBLA:1,2016-04-02T17:30:00Z,30.4367,-88.0117,40.52,1111122 
DISL,ioos:station:DISL:MBLA:1,2016-04-02T18:00:00Z,30.4367,-88.0117,37.4,1111122 
DISL,ioos:station:DISL:MBLA:1,2016-04-02T18:30:00Z,30.4367,-88.0117,38.96,1111122 
DISL,ioos:station:DISL:MBLA:1,2016-04-02T19:00:00Z,30.4367,-88.0117,38.52,1111122 
DISL,ioos:station:DISL:MBLA:1,2016-04-02T19:30:00Z,30.4367,-88.0117,32.38,1111122 
DISL,ioos:station:DISL:MBLA:1,2016-04-02T20:00:00Z,30.4367,-88.0117,29.09,1111122 
DISL,ioos:station:DISL:MBLA:1,2016-04-02T20:30:00Z,30.4367,-88.0117,39.33,1111122 
DISL,ioos:station:DISL:MBLA:1,2016-04-02T21:00:00Z,30.4367,-88.0117,30.95,1111122 
DISL,ioos:station:DISL:MBLA:1,2016-04-02T21:30:00Z,30.4367,-88.0117,32.33,1111122 
DISL,ioos:station:DISL:MBLA:1,2016-04-02T22:00:00Z,30.4367,-88.0117,34.33,1111122 
DISL,ioos:station:DISL:MBLA:1,2016-04-02T22:30:00Z,30.4367,-88.0117,33.28,1111122 
DISL,ioos:station:DISL:MBLA:1,2016-04-02T23:00:00Z,30.4367,-88.0117,29.72,1111122 
DISL,ioos:station:DISL:MBLA:1,2016-04-02T23:30:00Z,30.4367,-88.0117,35.96,1111122 
DISL,ioos:station:DISL:MBLA:1,2016-04-03T00:00:00Z,30.4367,-88.0117,33.11,1111122 
DISL,ioos:station:DISL:MBLA:1,2016-04-03T00:30:00Z,30.4367,-88.0117,42.85,1111122 
DISL,ioos:station:DISL:MBLA:1,2016-04-03T01:00:00Z,30.4367,-88.0117,45.57,1111122 
DISL,ioos:station:DISL:MBLA:1,2016-04-03T01:30:00Z,30.4367,-88.0117,40.52,1111122 
DISL,ioos:station:DISL:MBLA:1,2016-04-03T02:00:00Z,30.4367,-88.0117,41.17,1111122 
DISL,ioos:station:DISL:MBLA:1,2016-04-03T02:30:00Z,30.4367,-88.0117,42.29,1111122 
DISL,ioos:station:DISL:MBLA:1,2016-04-03T03:00:00Z,30.4367,-88.0117,39.51,1111122 
DISL,ioos:station:DISL:MBLA:1,2016-04-03T03:30:00Z,30.4367,-88.0117,36.8,1111122 
DISL,ioos:station:DISL:MBLA:1,2016-04-03T04:00:00Z,30.4367,-88.0117,47.45,1111122 
DISL,ioos:station:DISL:MBLA:1,2016-04-03T04:30:00Z,30.4367,-88.0117,42.87,1111122 
DISL,ioos:station:DISL:MBLA:1,2016-04-03T05:00:00Z,30.4367,-88.0117,51.14,1111122 
DISL,ioos:station:DISL:MBLA:1,2016-04-03T05:30:00Z,30.4367,-88.0117,52.37,1111122 
DISL,ioos:station:DISL:MBLA:1,2016-04-03T06:00:00Z,30.4367,-88.0117,49.28,1111122 
DISL,ioos:station:DISL:MBLA:1,2016-04-03T06:30:00Z,30.4367,-88.0117,49.52,1111122 
DISL,ioos:station:DISL:MBLA:1,2016-04-03T07:00:00Z,30.4367,-88.0117,49.6,1111122 
DISL,ioos:station:DISL:MBLA:1,2016-04-03T07:30:00Z,30.4367,-88.0117,49.7,1111122 
DISL,ioos:station:DISL:MBLA:1,2016-04-03T08:00:00Z,30.4367,-88.0117,52.96,1111122 
DISL,ioos:station:DISL:MBLA:1,2016-04-03T08:30:00Z,30.4367,-88.0117,53.84,1111122 
DISL,ioos:station:DISL:MBLA:1,2016-04-03T09:00:00Z,30.4367,-88.0117,59.68,1111122 
DISL,ioos:station:DISL:MBLA:1,2016-04-03T09:30:00Z,30.4367,-88.0117,59.95,1111122 
DISL,ioos:station:DISL:MBLA:1,2016-04-03T10:00:00Z,30.4367,-88.0117,62.94,1111122 
DISL,ioos:station:DISL:MBLA:1,2016-04-03T10:30:00Z,30.4367,-88.0117,65.38,1111122 
DISL,ioos:station:DISL:MBLA:1,2016-04-03T11:00:00Z,30.4367,-88.0117,63.45,1111122 
DISL,ioos:station:DISL:MBLA:1,2016-04-03T11:30:00Z,30.4367,-88.0117,68.6,1111122 
DISL,ioos:station:DISL:MBLA:1,2016-04-03T12:00:00Z,30.4367,-88.0117,63.85,1111122 
DISL,ioos:station:DISL:MBLA:1,2016-04-03T12:30:00Z,30.4367,-88.0117,57.61,1111122 
DISL,ioos:station:DISL:MBLA:1,2016-04-03T13:00:00Z,30.4367,-88.0117,55.74,1111122 
DISL,ioos:station:DISL:MBLA:1,2016-04-03T13:30:00Z,30.4367,-88.0117,52.38,1111122 
DISL,ioos:station:DISL:MBLA:1,2016-04-03T14:00:00Z,30.4367,-88.0117,49.79,1111122 
DISL,ioos:station:DISL:MBLA:1,2016-04-03T14:30:00Z,30.4367,-88.0117,49.75,1111122 
DISL,ioos:station:DISL:MBLA:1,2016-04-03T15:00:00Z,30.4367,-88.0117,46.63,1111122 
DISL,ioos:station:DISL:MBLA:1,2016-04-03T15:30:00Z,30.4367,-88.0117,56.03,1111122 
DISL,ioos:station:DISL:MBLA:1,2016-04-03T16:00:00Z,30.4367,-88.0117,50.43,1111122 
DISL,ioos:station:DISL:MBLA:1,2016-04-03T16:30:00Z,30.4367,-88.0117,48.66,1111122 
DISL,ioos:station:DISL:MBLA:1,2016-04-03T17:00:00Z,30.4367,-88.0117,49.1,1111122 
DISL,ioos:station:DISL:MBLA:1,2016-04-03T17:30:00Z,30.4367,-88.0117,48.22,1111122 
DISL,ioos:station:DISL:MBLA:1,2016-04-03T18:00:00Z,30.4367,-88.0117,43.47,1111122 
DISL,ioos:station:DISL:MBLA:1,2016-04-03T18:30:00Z,30.4367,-88.0117,35.94,1111122 
DISL,ioos:station:DISL:MBLA:1,2016-04-03T19:00:00Z,30.4367,-88.0117,37.19,1111122 
DISL,ioos:station:DISL:MBLA:1,2016-04-03T19:30:00Z,30.4367,-88.0117,31.96,1111122 
DISL,ioos:station:DISL:MBLA:1,2016-04-03T20:00:00Z,30.4367,-88.0117,28.67,1111122 
DISL,ioos:station:DISL:MBLA:1,2016-04-03T20:30:00Z,30.4367,-88.0117,28.77,1111122 
DISL,ioos:station:DISL:MBLA:1,2016-04-03T21:00:00Z,30.4367,-88.0117,42.33,1111122 
DISL,ioos:station:DISL:MBLA:1,2016-04-03T21:30:00Z,30.4367,-88.0117,40.33,1111122 
DISL,ioos:station:DISL:MBLA:1,2016-04-03T22:00:00Z,30.4367,-88.0117,42.2,1111122 
DISL,ioos:station:DISL:MBLA:1,2016-04-03T22:30:00Z,30.4367,-88.0117,48.47,1111122 
DISL,ioos:station:DISL:MBLA:1,2016-04-03T23:00:00Z,30.4367,-88.0117,43.32,1111122 
DISL,ioos:station:DISL:MBLA:1,2016-04-03T23:30:00Z,30.4367,-88.0117,53.36,1111122 
DISL,ioos:station:DISL:MBLA:1,2016-04-04T00:00:00Z,30.4367,-88.0117,55.09,1111122 
DISL,ioos:station:DISL:MBLA:1,2016-04-04T00:30:00Z,30.4367,-88.0117,56.55,1111122 
DISL,ioos:station:DISL:MBLA:1,2016-04-04T01:00:00Z,30.4367,-88.0117,55.91,1111122 
DISL,ioos:station:DISL:MBLA:1,2016-04-04T01:30:00Z,30.4367,-88.0117,61.85,1111122 
DISL,ioos:station:DISL:MBLA:1,2016-04-04T02:00:00Z,30.4367,-88.0117,62.7,1111122 
DISL,ioos:station:DISL:MBLA:1,2016-04-04T02:30:00Z,30.4367,-88.0117,62.94,1111122 
DISL,ioos:station:DISL:MBLA:1,2016-04-04T03:00:00Z,30.4367,-88.0117,64.37,1111122 
DISL,ioos:station:DISL:MBLA:1,2016-04-04T03:30:00Z,30.4367,-88.0117,66.91,1111122 
DISL,ioos:station:DISL:MBLA:1,2016-04-04T04:00:00Z,30.4367,-88.0117,63.69,1111122 
DISL,ioos:station:DISL:MBLA:1,2016-04-04T04:30:00Z,30.4367,-88.0117,68.13,1111122 
DISL,ioos:station:DISL:MBLA:1,2016-04-04T05:00:00Z,30.4367,-88.0117,74.82,1111122 
DISL,ioos:station:DISL:MBLA:1,2016-04-04T05:30:00Z,30.4367,-88.0117,74.48,1111122 
DISL,ioos:station:DISL:MBLA:1,2016-04-04T06:00:00Z,30.4367,-88.0117,75.6,1111122 
DISL,ioos:station:DISL:MBLA:1,2016-04-04T06:30:00Z,30.4367,-88.0117,78.18,1111122 
DISL,ioos:station:DISL:MBLA:1,2016-04-04T07:00:00Z,30.4367,-88.0117,76.11,1111122 
DISL,ioos:station:DISL:MBLA:1,2016-04-04T07:30:00Z,30.4367,-88.0117,75.12,1111122 
DISL,ioos:station:DISL:MBLA:1,2016-04-04T08:00:00Z,30.4367,-88.0117,74.14,1111122 
DISL,ioos:station:DISL:MBLA:1,2016-04-04T08:30:00Z,30.4367,-88.0117,72.24,1111122 
DISL,ioos:station:DISL:MBLA:1,2016-04-04T09:00:00Z,30.4367,-88.0117,73.19,1111122 
DISL,ioos:station:DISL:MBLA:1,2016-04-04T09:30:00Z,30.4367,-88.0117,72.31,1111122 
DISL,ioos:station:DISL:MBLA:1,2016-04-04T10:00:00Z,30.4367,-88.0117,71.66,1111122 
DISL,ioos:station:DISL:MBLA:1,2016-04-04T10:30:00Z,30.4367,-88.0117,70.51,1111122 
DISL,ioos:station:DISL:MBLA:1,2016-04-04T11:00:00Z,30.4367,-88.0117,70.79,1111122 
DISL,ioos:station:DISL:MBLA:1,2016-04-04T11:30:00Z,30.4367,-88.0117,71.94,1111122 
DISL,ioos:station:DISL:MBLA:1,2016-04-04T12:00:00Z,30.4367,-88.0117,63.77,1111122 
DISL,ioos:station:DISL:MBLA:1,2016-04-04T12:30:00Z,30.4367,-88.0117,64.04,1111122 
DISL,ioos:station:DISL:MBLA:1,2016-04-04T13:00:00Z,30.4367,-88.0117,57.86,1111122 
DISL,ioos:station:DISL:MBLA:1,2016-04-04T13:30:00Z,30.4367,-88.0117,57.72,1111122 
DISL,ioos:station:DISL:MBLA:1,2016-04-04T14:00:00Z,30.4367,-88.0117,48.53,1111122 
DISL,ioos:station:DISL:MBLA:1,2016-04-04T14:30:00Z,30.4367,-88.0117,54.12,1111122 
DISL,ioos:station:DISL:MBLA:1,2016-04-04T15:00:00Z,30.4367,-88.0117,52.39,1111122 
DISL,ioos:station:DISL:MBLA:1,2016-04-04T15:30:00Z,30.4367,-88.0117,53.4,1111122 
DISL,ioos:station:DISL:MBLA:1,2016-04-04T16:00:00Z,30.4367,-88.0117,59.06,1111122 
DISL,ioos:station:DISL:MBLA:1,2016-04-04T16:30:00Z,30.4367,-88.0117,54.59,1111122 
DISL,ioos:station:DISL:MBLA:1,2016-04-04T17:00:00Z,30.4367,-88.0117,55.87,1111122 
DISL,ioos:station:DISL:MBLA:1,2016-04-04T17:30:00Z,30.4367,-88.0117,47.66,1111122 
DISL,ioos:station:DISL:MBLA:1,2016-04-04T18:00:00Z,30.4367,-88.0117,52.26,1111122 
DISL,ioos:station:DISL:MBLA:1,2016-04-04T18:30:00Z,30.4367,-88.0117,46.43,1111122 
DISL,ioos:station:DISL:MBLA:1,2016-04-04T19:00:00Z,30.4367,-88.0117,42.13,1111122 
DISL,ioos:station:DISL:MBLA:1,2016-04-04T19:30:00Z,30.4367,-88.0117,52.77,1111122 
DISL,ioos:station:DISL:MBLA:1,2016-04-04T20:00:00Z,30.4367,-88.0117,62.6,1111122 
DISL,ioos:station:DISL:MBLA:1,2016-04-04T20:30:00Z,30.4367,-88.0117,57.58,1111122 
DISL,ioos:station:DISL:MBLA:1,2016-04-04T21:00:00Z,30.4367,-88.0117,68.36,1111122 
DISL,ioos:station:DISL:MBLA:1,2016-04-04T21:30:00Z,30.4367,-88.0117,65.95,1111122 
DISL,ioos:station:DISL:MBLA:1,2016-04-04T22:00:00Z,30.4367,-88.0117,59.75,1111122 
DISL,ioos:station:DISL:MBLA:1,2016-04-04T22:30:00Z,30.4367,-88.0117,64.19,1111122 
DISL,ioos:station:DISL:MBLA:1,2016-04-04T23:00:00Z,30.4367,-88.0117,50.7,1111122 
DISL,ioos:station:DISL:MBLA:1,2016-04-04T23:30:00Z,30.4367,-88.0117,50.94,1111122 
DISL,ioos:station:DISL:MBLA:1,2016-04-05T00:00:00Z,30.4367,-88.0117,56.92,1111122 
DISL,ioos:station:DISL:MBLA:1,2016-04-05T00:30:00Z,30.4367,-88.0117,57.74,1111122 
DISL,ioos:station:DISL:MBLA:1,2016-04-05T01:00:00Z,30.4367,-88.0117,62.25,1111122 
DISL,ioos:station:DISL:MBLA:1,2016-04-05T01:30:00Z,30.4367,-88.0117,69.5,1111122 
DISL,ioos:station:DISL:MBLA:1,2016-04-05T02:00:00Z,30.4367,-88.0117,71.13,1111122 
DISL,ioos:station:DISL:MBLA:1,2016-04-05T02:30:00Z,30.4367,-88.0117,72.35,1111122 
DISL,ioos:station:DISL:MBLA:1,2016-04-05T03:00:00Z,30.4367,-88.0117,72.19,1111122 
DISL,ioos:station:DISL:MBLA:1,2016-04-05T03:30:00Z,30.4367,-88.0117,73.34,1111122 
DISL,ioos:station:DISL:MBLA:1,2016-04-05T04:00:00Z,30.4367,-88.0117,79.65,1111122 
DISL,ioos:station:DISL:MBLA:1,2016-04-05T04:30:00Z,30.4367,-88.0117,79.25,1111122 
DISL,ioos:station:DISL:MBLA:1,2016-04-05T05:00:00Z,30.4367,-88.0117,81.8,1111122 
DISL,ioos:station:DISL:MBLA:1,2016-04-05T05:30:00Z,30.4367,-88.0117,78.54,1111122 
DISL,ioos:station:DISL:MBLA:1,2016-04-05T06:00:00Z,30.4367,-88.0117,78.68,1111122 
DISL,ioos:station:DISL:MBLA:1,2016-04-05T06:30:00Z,30.4367,-88.0117,81.2,1111122 
DISL,ioos:station:DISL:MBLA:1,2016-04-05T07:00:00Z,30.4367,-88.0117,81.6,1111122 
DISL,ioos:station:DISL:MBLA:1,2016-04-05T07:30:00Z,30.4367,-88.0117,83.7,1111122 
DISL,ioos:station:DISL:MBLA:1,2016-04-05T08:00:00Z,30.4367,-88.0117,86.1,1111122 
DISL,ioos:station:DISL:MBLA:1,2016-04-05T08:30:00Z,30.4367,-88.0117,83.4,1111122 
DISL,ioos:station:DISL:MBLA:1,2016-04-05T09:00:00Z,30.4367,-88.0117,81.7,1111122 
DISL,ioos:station:DISL:MBLA:1,2016-04-05T09:30:00Z,30.4367,-88.0117,81.8,1111122 
DISL,ioos:station:DISL:MBLA:1,2016-04-05T10:00:00Z,30.4367,-88.0117,76.78,1111122 
DISL,ioos:station:DISL:MBLA:1,2016-04-05T10:30:00Z,30.4367,-88.0117,74.17,1111122 
DISL,ioos:station:DISL:MBLA:1,2016-04-05T11:00:00Z,30.4367,-88.0117,77.6,1111122 
DISL,ioos:station:DISL:MBLA:1,2016-04-05T11:30:00Z,30.4367,-88.0117,72.07,1111122 
DISL,ioos:station:DISL:MBLA:1,2016-04-05T12:00:00Z,30.4367,-88.0117,74.14,1111122 
DISL,ioos:station:DISL:MBLA:1,2016-04-05T12:30:00Z,30.4367,-88.0117,69.15,1111122 
DISL,ioos:station:DISL:MBLA:1,2016-04-05T13:00:00Z,30.4367,-88.0117,63.86,1111122 
DISL,ioos:station:DISL:MBLA:1,2016-04-05T13:30:00Z,30.4367,-88.0117,60.91,1111122 
DISL,ioos:station:DISL:MBLA:1,2016-04-05T14:00:00Z,30.4367,-88.0117,63.68,1111122 
DISL,ioos:station:DISL:MBLA:1,2016-04-05T17:00:00Z,30.4367,-88.0117,56.43,1111122 
DISL,ioos:station:DISL:MBLA:1,2016-04-05T17:30:00Z,30.4367,-88.0117,57.41,1111122 
DISL,ioos:station:DISL:MBLA:1,2016-04-05T18:00:00Z,30.4367,-88.0117,53.28,1111122 
DISL,ioos:station:DISL:MBLA:1,2016-04-05T18:30:00Z,30.4367,-88.0117,51.55,1111122 
DISL,ioos:station:DISL:MBLA:1,2016-04-05T19:00:00Z,30.4367,-88.0117,38.81,1111122 
DISL,ioos:station:DISL:MBLA:1,2016-04-05T19:30:00Z,30.4367,-88.0117,55.85,1111122 
DISL,ioos:station:DISL:MBLA:1,2016-04-05T20:00:00Z,30.4367,-88.0117,53.31,1111122 
DISL,ioos:station:DISL:MBLA:1,2016-04-05T20:30:00Z,30.4367,-88.0117,60.87,1111122 
DISL,ioos:station:DISL:MBLA:1,2016-04-05T21:00:00Z,30.4367,-88.0117,65.34,1111122 
DISL,ioos:station:DISL:MBLA:1,2016-04-05T21:30:00Z,30.4367,-88.0117,67.24,1111122 
DISL,ioos:station:DISL:MBLA:1,2016-04-05T22:00:00Z,30.4367,-88.0117,68.77,1111122 
DISL,ioos:station:DISL:MBLA:1,2016-04-05T22:30:00Z,30.4367,-88.0117,69.28,1111122 
DISL,ioos:station:DISL:MBLA:1,2016-04-05T23:00:00Z,30.4367,-88.0117,70.84,1111122 
DISL,ioos:station:DISL:MBLA:1,2016-04-05T23:30:00Z,30.4367,-88.0117,72.79,1111122 
DISL,ioos:station:DISL:MBLA:1,2016-04-06T00:00:00Z,30.4367,-88.0117,72.69,1111122 
DISL,ioos:station:DISL:MBLA:1,2016-04-06T00:30:00Z,30.4367,-88.0117,73.16,1111122 
DISL,ioos:station:DISL:MBLA:1,2016-04-06T01:00:00Z,30.4367,-88.0117,77.06,1111122 
DISL,ioos:station:DISL:MBLA:1,2016-04-06T01:30:00Z,30.4367,-88.0117,76.56,1111122 
DISL,ioos:station:DISL:MBLA:1,2016-04-06T02:00:00Z,30.4367,-88.0117,79.68,1111122 
DISL,ioos:station:DISL:MBLA:1,2016-04-06T02:30:00Z,30.4367,-88.0117,80.3,1111122 
DISL,ioos:station:DISL:MBLA:1,2016-04-06T03:00:00Z,30.4367,-88.0117,82.6,1111122 
DISL,ioos:station:DISL:MBLA:1,2016-04-06T03:30:00Z,30.4367,-88.0117,83.7,1111122 
DISL,ioos:station:DISL:MBLA:1,2016-04-06T04:00:00Z,30.4367,-88.0117,85.7,1111122 
DISL,ioos:station:DISL:MBLA:1,2016-04-06T04:30:00Z,30.4367,-88.0117,88.0,1111122 
DISL,ioos:station:DISL:MBLA:1,2016-04-06T05:00:00Z,30.4367,-88.0117,88.0,1111122 
DISL,ioos:station:DISL:MBLA:1,2016-04-06T05:30:00Z,30.4367,-88.0117,85.4,1111122 
DISL,ioos:station:DISL:MBLA:1,2016-04-06T06:00:00Z,30.4367,-88.0117,85.2,1111122 
DISL,ioos:station:DISL:MBLA:1,2016-04-06T06:30:00Z,30.4367,-88.0117,86.6,1111122 
DISL,ioos:station:DISL:MBLA:1,2016-04-06T07:00:00Z,30.4367,-88.0117,90.1,1111122 
DISL,ioos:station:DISL:MBLA:1,2016-04-06T07:30:00Z,30.4367,-88.0117,91.1,1111122 
DISL,ioos:station:DISL:MBLA:1,2016-04-06T08:00:00Z,30.4367,-88.0117,93.8,1111122 
DISL,ioos:station:DISL:MBLA:1,2016-04-06T08:30:00Z,30.4367,-88.0117,94.8,1111122 
DISL,ioos:station:DISL:MBLA:1,2016-04-06T09:00:00Z,30.4367,-88.0117,88.6,1111122 
DISL,ioos:station:DISL:MBLA:1,2016-04-06T09:30:00Z,30.4367,-88.0117,85.5,1111122 
DISL,ioos:station:DISL:MBLA:1,2016-04-06T10:00:00Z,30.4367,-88.0117,84.8,1111122 
DISL,ioos:station:DISL:MBLA:1,2016-04-06T10:30:00Z,30.4367,-88.0117,81.4,1111122 
DISL,ioos:station:DISL:MBLA:1,2016-04-06T11:00:00Z,30.4367,-88.0117,78.34,1111122 
DISL,ioos:station:DISL:MBLA:1,2016-04-06T11:30:00Z,30.4367,-88.0117,81.0,1111122 
DISL,ioos:station:DISL:MBLA:1,2016-04-06T12:00:00Z,30.4367,-88.0117,80.4,1111122 
DISL,ioos:station:DISL:MBLA:1,2016-04-06T12:30:00Z,30.4367,-88.0117,76.75,1111122 
DISL,ioos:station:DISL:MBLA:1,2016-04-06T13:00:00Z,30.4367,-88.0117,73.5,1111122 
DISL,ioos:station:DISL:MBLA:1,2016-04-06T13:30:00Z,30.4367,-88.0117,74.75,1111122 
DISL,ioos:station:DISL:MBLA:1,2016-04-06T14:00:00Z,30.4367,-88.0117,82.9,1111122 
DISL,ioos:station:DISL:MBLA:1,2016-04-06T14:30:00Z,30.4367,-88.0117,76.61,1111122 
DISL,ioos:station:DISL:MBLA:1,2016-04-06T15:00:00Z,30.4367,-88.0117,74.84,1111122 
DISL,ioos:station:DISL:MBLA:1,2016-04-06T15:30:00Z,30.4367,-88.0117,73.41,1111122 
DISL,ioos:station:DISL:MBLA:1,2016-04-06T16:00:00Z,30.4367,-88.0117,78.83,1111122 
DISL,ioos:station:DISL:MBLA:1,2016-04-06T16:30:00Z,30.4367,-88.0117,82.3,1111122 
DISL,ioos:station:DISL:MBLA:1,2016-04-06T17:00:00Z,30.4367,-88.0117,82.8,1111122 
DISL,ioos:station:DISL:MBLA:1,2016-04-06T17:30:00Z,30.4367,-88.0117,85.5,1111122 
DISL,ioos:station:DISL:MBLA:1,2016-04-06T18:00:00Z,30.4367,-88.0117,85.5,1111122 
DISL,ioos:station:DISL:MBLA:1,2016-04-06T18:30:00Z,30.4367,-88.0117,88.1,1111122 
DISL,ioos:station:DISL:MBLA:1,2016-04-06T19:00:00Z,30.4367,-88.0117,89.2,1111122 
DISL,ioos:station:DISL:MBLA:1,2016-04-06T19:30:00Z,30.4367,-88.0117,89.2,1111122 
DISL,ioos:station:DISL:MBLA:1,2016-04-06T20:00:00Z,30.4367,-88.0117,89.0,1111122 
DISL,ioos:station:DISL:MBLA:1,2016-04-06T20:30:00Z,30.4367,-88.0117,90.7,1111122 
DISL,ioos:station:DISL:MBLA:1,2016-04-06T21:00:00Z,30.4367,-88.0117,90.4,1111122 
DISL,ioos:station:DISL:MBLA:1,2016-04-06T21:30:00Z,30.4367,-88.0117,82.9,1111122 
DISL,ioos:station:DISL:MBLA:1,2016-04-06T22:00:00Z,30.4367,-88.0117,81.5,1111122 
DISL,ioos:station:DISL:MBLA:1,2016-04-06T22:30:00Z,30.4367,-88.0117,83.5,1111122 
DISL,ioos:station:DISL:MBLA:1,2016-04-06T23:00:00Z,30.4367,-88.0117,84.5,1111122 
DISL,ioos:station:DISL:MBLA:1,2016-04-06T23:30:00Z,30.4367,-88.0117,82.8,1111122 
DISL,ioos:station:DISL:MBLA:1,2016-04-07T00:00:00Z,30.4367,-88.0117,85.9,1111122 
DISL,ioos:station:DISL:MBLA:1,2016-04-07T00:30:00Z,30.4367,-88.0117,85.0,1111122 
DISL,ioos:station:DISL:MBLA:1,2016-04-07T01:00:00Z,30.4367,-88.0117,81.0,1111122 
DISL,ioos:station:DISL:MBLA:1,2016-04-07T01:30:00Z,30.4367,-88.0117,78.01,1111122 
DISL,ioos:station:DISL:MBLA:1,2016-04-07T02:00:00Z,30.4367,-88.0117,81.7,1111122 
DISL,ioos:station:DISL:MBLA:1,2016-04-07T02:30:00Z,30.4367,-88.0117,80.5,1111122 